Monclova, OH

6:15 AM EDT on August 26, 2016 (GMT -0400)
Toledo Express

Weather History for KTOL - December, 2013

Change the Weather History Date:

Wednesday, December 18, 2013

  Actual Average Record
Temperature  
Mean Temperature 23 °F 29 °F  
Max Temperature 31 °F 35 °F 56 °F (1939)
Min Temperature 14 °F 22 °F -7 °F (1945)
Degree Days  
Heating Degree Days 42 36  
Month to date heating degree days 710 602  
Since 1 July heating degree days 2058 1835  
Cooling Degree Days 0 0  
Month to date cooling degree days 0 0  
Year to date cooling degree days 793 793  
Moisture  
Dew Point 15 °F    
Average Humidity 73    
Maximum Humidity 88    
Minimum Humidity 57    
Precipitation  
Precipitation 0.00 in 0.08 in 0.62 in (1957)
Month to date precipitation 0.74 1.58  
Year to date precipitation 34.50 33.14  
Snow  
Snow 0.00 in 0.20 in - ()
Month to date snowfall 9.5 3.7  
Since 1 July snowfall 10.0 5.8  
Snow Depth 6.00 in    
Sea Level Pressure  
Sea Level Pressure 30.09 in    
Wind  
Wind Speed 12 mph (SW)    
Max Wind Speed 21 mph    
Max Gust Speed 25 mph    
Visibility 10 miles    
Events      
T = Trace of Precipitation, MM = Missing Value Source: NWS Daily Summary

Daily Weather History Graph

Daily Weather History Graph

Search for Another Location

Airport or City:

Trip Planner

Search our weather history database for the weather conditions in past years. The results will help you decide how hot, cold, wet, or windy it might be!

Date:

Astronomy

Dec. 18, 2013 Rise Set
Actual Time 7:57 AM EST 5:07 PM EST
Civil Twilight 7:25 AM EST 5:38 PM EST
Nautical Twilight 6:50 AM EST 6:13 PM EST
Astronomical Twilight 6:16 AM EST 6:47 PM EST
Moon 6:39 PM EST (12/18) 8:35 AM EST (12/18)
Length of Visible Light 10h 13m
Length of Day
9h 09m
Full, 98% of the Moon is Illuminated
Dec 18
Full
Dec 25
Last Quarter
Jan 1
New
Jan 7
First Quarter
Jan 15
Full

Hourly Weather History & Observations

Time (EST) Temp. Windchill Dew Point Humidity Pressure Visibility Wind Dir Wind Speed Gust Speed Precip Events Conditions
12:52 AM 23.0 °F 13.1 °F 19.9 °F 88% 30.04 in 9.0 mi SW 9.2 mph - N/A   Scattered Clouds
1:52 AM 24.1 °F 12.0 °F 19.9 °F 84% 30.05 in 10.0 mi WSW 13.8 mph - N/A   Overcast
2:52 AM 21.0 °F 8.1 °F 17.1 °F 85% 30.06 in 10.0 mi WSW 13.8 mph - N/A   Clear
3:52 AM 19.0 °F 5.6 °F 15.1 °F 85% 30.08 in 10.0 mi WSW 13.8 mph - N/A   Clear
4:52 AM 18.0 °F 6.1 °F 14.0 °F 84% 30.09 in 10.0 mi WSW 10.4 mph - N/A   Clear
5:52 AM 17.1 °F 3.6 °F 12.9 °F 84% 30.10 in 10.0 mi WSW 12.7 mph - N/A   Scattered Clouds
6:52 AM 16.0 °F 2.3 °F 12.9 °F 88% 30.11 in 10.0 mi WSW 12.7 mph - N/A   Clear
7:52 AM 17.1 °F 5.0 °F 12.9 °F 84% 30.13 in 10.0 mi WSW 10.4 mph - N/A   Mostly Cloudy
8:52 AM 19.9 °F 8.6 °F 16.0 °F 85% 30.16 in 10.0 mi SW 10.4 mph - N/A   Overcast
9:52 AM 21.9 °F 10.4 °F 16.0 °F 78% 30.17 in 10.0 mi SW 11.5 mph - N/A   Overcast
10:52 AM 24.1 °F 12.5 °F 16.0 °F 71% 30.19 in 10.0 mi WSW 12.7 mph 20.7 mph N/A   Overcast
11:52 AM 23.0 °F 12.4 °F 16.0 °F 74% 30.19 in 10.0 mi WSW 10.4 mph - N/A   Clear
12:52 PM 24.1 °F 10.1 °F 17.1 °F 75% 30.17 in 10.0 mi WSW 18.4 mph - N/A   Clear
1:52 PM 24.1 °F 13.7 °F 17.1 °F 75% 30.16 in 10.0 mi WSW 10.4 mph - N/A   Clear
2:52 PM 24.1 °F 13.7 °F 16.0 °F 71% 30.14 in 10.0 mi SSW 10.4 mph - N/A   Clear
3:52 PM 23.0 °F 11.1 °F 14.0 °F 68% 30.15 in 10.0 mi SW 12.7 mph - N/A   Clear
4:52 PM 21.9 °F 11.7 °F 12.9 °F 68% 30.13 in 10.0 mi SSW 9.2 mph - N/A   Clear
5:52 PM 21.0 °F 10.6 °F 12.9 °F 71% 30.10 in 10.0 mi South 9.2 mph - N/A   Clear
6:52 PM 21.0 °F 10.6 °F 12.9 °F 71% 30.07 in 10.0 mi South 9.2 mph - N/A   Clear
7:52 PM 21.9 °F 10.4 °F 12.9 °F 68% 30.04 in 10.0 mi South 11.5 mph 19.6 mph N/A   Clear
8:52 PM 24.1 °F 13.1 °F 12.9 °F 62% 30.00 in 10.0 mi South 11.5 mph 20.7 mph N/A   Clear
9:52 PM 26.1 °F 14.5 °F 14.0 °F 60% 29.97 in 10.0 mi SSW 13.8 mph 25.3 mph N/A   Clear
10:52 PM 28.0 °F 18.1 °F 15.1 °F 58% 29.95 in 10.0 mi SSW 11.5 mph 20.7 mph N/A   Clear
11:52 PM 30.0 °F 20.0 °F 17.1 °F 59% 29.94 in 10.0 mi SSW 12.7 mph 20.7 mph N/A   Clear